ACA769 KBOS-CYYZ

Flight info

Callsign ACA769
Flight time 1h 22m
Altitude 36000
Route HYLND7 HYLND DCT CAM Q822 GONZZ DCT WOZEE LINNG3
Aircraft A320/M-SDE3FGHIRWY/LB1

Departure

Time 2026-05-05 13:09
Airport Boston Logan International Airport (KBOS)

Arrival

Time 2026-05-05 14:31
Airport Toronto Pearson International Airport (CYYZ)
Time Latitude Longitude Altitude Speed Heading
2026-05-05 12:15 42.36264 -71.01978 26 ft 0 kts 116°
2026-05-05 12:31 42.36264 -71.01979 25 ft 0 kts 116°
2026-05-05 12:56 42.36265 -71.01979 30 ft 1 kts 116°
2026-05-05 12:57 42.36276 -71.02009 26 ft 4 kts 124°
2026-05-05 12:57 42.36281 -71.02018 25 ft 0 kts 126°
2026-05-05 12:58 42.36289 -71.02031 25 ft 2 kts 116°
2026-05-05 12:58 42.36293 -71.02053 25 ft 2 kts 88°
2026-05-05 12:58 42.36291 -71.02076 25 ft 2 kts 74°
2026-05-05 12:59 42.36286 -71.02098 30 ft 2 kts 74°
2026-05-05 12:59 42.36281 -71.02120 25 ft 2 kts 74°
2026-05-05 12:59 42.36277 -71.02143 31 ft 2 kts 74°
2026-05-05 13:00 42.36268 -71.02184 25 ft 0 kts 74°
2026-05-05 13:01 42.36319 -71.02248 29 ft 12 kts 292°
2026-05-05 13:01 42.36273 -71.02343 27 ft 13 kts 188°
2026-05-05 13:01 42.36197 -71.02349 25 ft 7 kts 182°
2026-05-05 13:01 42.36192 -71.02349 29 ft 0 kts 182°
2026-05-05 13:02 42.36150 -71.02352 28 ft 12 kts 180°
2026-05-05 13:02 42.36078 -71.02316 25 ft 11 kts 150°
2026-05-05 13:02 42.36023 -71.02238 29 ft 12 kts 119°
2026-05-05 13:02 42.35972 -71.02117 25 ft 17 kts 121°
2026-05-05 13:03 42.35909 -71.01978 27 ft 18 kts 121°
2026-05-05 13:03 42.35852 -71.01827 27 ft 18 kts 105°
2026-05-05 13:03 42.35831 -71.01683 27 ft 14 kts 101°
2026-05-05 13:03 42.35846 -71.01571 25 ft 15 kts 31°
2026-05-05 13:04 42.35970 -71.01511 28 ft 23 kts 20°
2026-05-05 13:04 42.36131 -71.01433 25 ft 26 kts 19°
2026-05-05 13:04 42.36293 -71.01355 29 ft 25 kts 20°
2026-05-05 13:04 42.36447 -71.01281 27 ft 23 kts 19°
2026-05-05 13:05 42.36603 -71.01206 27 ft 23 kts 19°
2026-05-05 13:05 42.36750 -71.01141 25 ft 20 kts
2026-05-05 13:05 42.36858 -71.01223 26 ft 17 kts 342°
2026-05-05 13:05 42.36961 -71.01138 28 ft 19 kts 41°
2026-05-05 13:06 42.37062 -71.01061 28 ft 14 kts 26°
2026-05-05 13:06 42.37149 -71.01004 28 ft 14 kts 26°
2026-05-05 13:06 42.37239 -71.00944 28 ft 14 kts 25°
2026-05-05 13:06 42.37348 -71.00881 28 ft 20 kts 22°
2026-05-05 13:07 42.37479 -71.00820 27 ft 23 kts 19°
2026-05-05 13:07 42.37636 -71.00744 27 ft 23 kts 19°
2026-05-05 13:07 42.37768 -71.00680 27 ft 14 kts 20°
2026-05-05 13:07 42.37833 -71.00605 25 ft 14 kts 87°
2026-05-05 13:08 42.37807 -71.00495 28 ft 11 kts 135°
2026-05-05 13:08 42.37729 -71.00504 25 ft 16 kts 199°
2026-05-05 13:08 42.37403 -71.00666 28 ft 84 kts 201°
2026-05-05 13:08 42.36664 -71.01023 35 ft 138 kts 200°
2026-05-05 13:09 42.35759 -71.01464 558 ft 141 kts 201°
2026-05-05 13:09 42.34789 -71.01723 1201 ft 147 kts 183°
2026-05-05 13:09 42.33785 -71.01254 1846 ft 165 kts 155°
2026-05-05 13:09 42.32924 -71.00004 2161 ft 196 kts 138°
2026-05-05 13:10 42.32030 -70.98470 2426 ft 220 kts 136°
2026-05-05 13:10 42.31321 -70.96507 2862 ft 246 kts 106°
2026-05-05 13:10 42.31340 -70.94090 3296 ft 274 kts 80°
2026-05-05 13:10 42.31761 -70.91473 3757 ft 293 kts 79°
2026-05-05 13:11 42.32186 -70.88782 4539 ft 299 kts 79°
2026-05-05 13:11 42.32617 -70.86014 5352 ft 304 kts 80°
2026-05-05 13:11 42.33045 -70.83205 6225 ft 306 kts 81°
2026-05-05 13:11 42.33510 -70.80384 7037 ft 311 kts 73°
2026-05-05 13:12 42.34442 -70.77734 7822 ft 315 kts 54°
2026-05-05 13:12 42.35904 -70.75527 8609 ft 316 kts 36°
2026-05-05 13:12 42.37756 -70.73966 9410 ft 314 kts 18°
2026-05-05 13:12 42.39816 -70.73025 10178 ft 315 kts 12°
2026-05-05 13:13 42.41975 -70.72226 10407 ft 335 kts
2026-05-05 13:13 42.44354 -70.71999 10619 ft 350 kts 351°
2026-05-05 13:13 42.46756 -70.72540 11146 ft 351 kts 338°
2026-05-05 13:13 42.49002 -70.73771 11830 ft 349 kts 328°
2026-05-05 13:14 42.51188 -70.75236 12540 ft 350 kts 324°
2026-05-05 13:14 42.53167 -70.77130 13223 ft 347 kts 313°
2026-05-05 13:14 42.54794 -70.79530 13880 ft 345 kts 301°
2026-05-05 13:14 42.56125 -70.82244 14471 ft 347 kts 298°
2026-05-05 13:15 42.57440 -70.84958 15055 ft 351 kts 298°
2026-05-05 13:15 42.58790 -70.87737 15645 ft 355 kts 298°
2026-05-05 13:15 42.60160 -70.90553 16214 ft 359 kts 298°
2026-05-05 13:15 42.61547 -70.93396 16791 ft 363 kts 298°
2026-05-05 13:16 42.62948 -70.96264 17358 ft 367 kts 298°
2026-05-05 13:16 42.64366 -70.99169 17920 ft 371 kts 298°
2026-05-05 13:16 42.65799 -71.02105 18440 ft 375 kts 298°
2026-05-05 13:16 42.67245 -71.05071 18943 ft 378 kts 298°
2026-05-05 13:17 42.68699 -71.08071 19457 ft 381 kts 298°
2026-05-05 13:17 42.70137 -71.11049 19961 ft 384 kts 298°
2026-05-05 13:17 42.71609 -71.14100 20489 ft 387 kts 298°
2026-05-05 13:17 42.73093 -71.17171 21015 ft 390 kts 298°
2026-05-05 13:18 42.74588 -71.20266 21515 ft 393 kts 298°
2026-05-05 13:18 42.76091 -71.23383 22014 ft 396 kts 299°
2026-05-05 13:18 42.77441 -71.26646 22460 ft 394 kts 290°
2026-05-05 13:18 42.78330 -71.30158 22922 ft 392 kts 280°
2026-05-05 13:19 42.78796 -71.33816 23376 ft 393 kts 275°
2026-05-05 13:19 42.79196 -71.37463 23760 ft 396 kts 276°
2026-05-05 13:19 42.79606 -71.41172 24147 ft 398 kts 276°
2026-05-05 13:19 42.80023 -71.44907 24530 ft 400 kts 276°
2026-05-05 13:20 42.80443 -71.48658 24898 ft 401 kts 276°
2026-05-05 13:20 42.80864 -71.52425 25261 ft 403 kts 276°
2026-05-05 13:20 42.81283 -71.56206 25624 ft 405 kts 276°
2026-05-05 13:20 42.81702 -71.60013 25999 ft 406 kts 276°
2026-05-05 13:21 42.82119 -71.63820 26354 ft 408 kts 276°
2026-05-05 13:21 42.82534 -71.67650 26704 ft 409 kts 276°
2026-05-05 13:21 42.82944 -71.71446 27039 ft 411 kts 276°
2026-05-05 13:21 42.83363 -71.75300 27365 ft 413 kts 276°
2026-05-05 13:22 42.83781 -71.79177 27692 ft 414 kts 276°
2026-05-05 13:22 42.84198 -71.83067 28010 ft 416 kts 276°
2026-05-05 13:22 42.84616 -71.86967 28315 ft 417 kts 276°
2026-05-05 13:22 42.85038 -71.90891 28610 ft 419 kts 276°
2026-05-05 13:23 42.85460 -71.94821 28903 ft 420 kts 276°
2026-05-05 13:23 42.85884 -71.98768 29176 ft 422 kts 276°
2026-05-05 13:23 42.86300 -72.02684 29445 ft 423 kts 276°
2026-05-05 13:23 42.86719 -72.06660 29701 ft 425 kts 276°
2026-05-05 13:24 42.87138 -72.10651 29940 ft 426 kts 276°
2026-05-05 13:24 42.87555 -72.14642 30205 ft 426 kts 276°
2026-05-05 13:24 42.87971 -72.18634 30507 ft 425 kts 276°
2026-05-05 13:24 42.88386 -72.22617 30801 ft 424 kts 276°
2026-05-05 13:25 42.88798 -72.26593 31092 ft 423 kts 276°
2026-05-05 13:25 42.89203 -72.30510 31385 ft 422 kts 276°
2026-05-05 13:25 42.89609 -72.34463 31693 ft 421 kts 276°
2026-05-05 13:25 42.90013 -72.38408 31979 ft 420 kts 276°
2026-05-05 13:26 42.90414 -72.42351 32260 ft 419 kts 276°
2026-05-05 13:26 42.90811 -72.46288 32550 ft 419 kts 276°
2026-05-05 13:26 42.91207 -72.50210 32841 ft 418 kts 276°
2026-05-05 13:26 42.91607 -72.54140 33139 ft 417 kts 276°
2026-05-05 13:27 42.92006 -72.58054 33425 ft 416 kts 276°
2026-05-05 13:27 42.92398 -72.61903 33714 ft 415 kts 276°
2026-05-05 13:27 42.92791 -72.65795 33998 ft 414 kts 276°
2026-05-05 13:27 42.93181 -72.69690 34263 ft 413 kts 276°
2026-05-05 13:28 42.93564 -72.73566 34509 ft 412 kts 276°
2026-05-05 13:28 42.93945 -72.77439 34754 ft 411 kts 276°
2026-05-05 13:28 42.94327 -72.81300 34982 ft 410 kts 276°
2026-05-05 13:28 42.94707 -72.85147 35227 ft 409 kts 276°
2026-05-05 13:29 42.95082 -72.88987 35469 ft 408 kts 276°
2026-05-05 13:29 42.95457 -72.92825 35686 ft 407 kts 276°
2026-05-05 13:29 42.95824 -72.96599 35824 ft 407 kts 276°
2026-05-05 13:29 42.96196 -73.00437 35853 ft 408 kts 276°
2026-05-05 13:30 42.96937 -73.08109 35852 ft 408 kts 276°
2026-05-05 13:30 42.97676 -73.15783 35859 ft 408 kts 276°
2026-05-05 13:31 42.98408 -73.23468 35859 ft 408 kts 276°
2026-05-05 13:31 42.99125 -73.31105 35858 ft 409 kts 275°
2026-05-05 13:32 42.99546 -73.38839 35861 ft 408 kts 270°
2026-05-05 13:32 42.99739 -73.46570 35852 ft 407 kts 270°
2026-05-05 13:33 42.99928 -73.54305 35834 ft 407 kts 270°
2026-05-05 13:33 43.00110 -73.61987 35831 ft 407 kts 270°
2026-05-05 13:34 43.00289 -73.69709 35842 ft 407 kts 270°
2026-05-05 13:34 43.00466 -73.77427 35839 ft 406 kts 270°
2026-05-05 13:35 43.00628 -73.85127 35830 ft 405 kts 270°
2026-05-05 13:35 43.00781 -73.92826 35826 ft 405 kts 270°
2026-05-05 13:36 43.00938 -74.00461 35827 ft 405 kts 270°
2026-05-05 13:36 43.01085 -74.08143 35828 ft 404 kts 270°
2026-05-05 13:37 43.01233 -74.15818 35829 ft 404 kts 270°
2026-05-05 13:37 43.01373 -74.23479 35820 ft 403 kts 270°
2026-05-05 13:38 43.01586 -74.31085 35817 ft 403 kts 272°
2026-05-05 13:38 43.01962 -74.38728 35822 ft 403 kts 272°
2026-05-05 13:39 43.02350 -74.46358 35819 ft 402 kts 272°
2026-05-05 13:39 43.02704 -74.53987 35816 ft 402 kts 272°
2026-05-05 13:40 43.03030 -74.61609 35814 ft 402 kts 271°
2026-05-05 13:40 43.03348 -74.69177 35804 ft 401 kts 271°
2026-05-05 13:41 43.03665 -74.76794 35803 ft 401 kts 271°
2026-05-05 13:41 43.03982 -74.84411 35796 ft 401 kts 271°
2026-05-05 13:42 43.04292 -74.92024 35794 ft 401 kts 271°
2026-05-05 13:42 43.04592 -74.99587 35793 ft 401 kts 271°
2026-05-05 13:43 43.04887 -75.07202 35798 ft 401 kts 271°
2026-05-05 13:43 43.05185 -75.14823 35773 ft 401 kts 271°
2026-05-05 13:44 43.05482 -75.22440 35769 ft 402 kts 271°
2026-05-05 13:44 43.05760 -75.29944 35772 ft 402 kts 271°
2026-05-05 13:45 43.06002 -75.37580 35773 ft 402 kts 270°
2026-05-05 13:45 43.06202 -75.45213 35795 ft 401 kts 270°
2026-05-05 13:46 43.06399 -75.52832 35800 ft 400 kts 270°
2026-05-05 13:46 43.06600 -75.60379 35799 ft 399 kts 270°
2026-05-05 13:47 43.06802 -75.67965 35790 ft 399 kts 270°
2026-05-05 13:47 43.06995 -75.75539 35786 ft 399 kts 270°
2026-05-05 13:48 43.07181 -75.83117 35790 ft 398 kts 270°
2026-05-05 13:48 43.07360 -75.90630 35784 ft 398 kts 270°
2026-05-05 13:49 43.07540 -75.98187 35773 ft 397 kts 270°
2026-05-05 13:49 43.07710 -76.05743 35769 ft 397 kts 270°
2026-05-05 13:50 43.07873 -76.13295 35634 ft 398 kts 270°
2026-05-05 13:50 43.07954 -76.17019 35434 ft 396 kts 269°
2026-05-05 13:50 43.08036 -76.20774 35400 ft 395 kts 269°
2026-05-05 13:51 43.08195 -76.28288 35394 ft 395 kts 269°
2026-05-05 13:51 43.08271 -76.32042 35135 ft 395 kts 269°
2026-05-05 13:51 43.08347 -76.35796 34885 ft 394 kts 269°
2026-05-05 13:52 43.08422 -76.39543 34632 ft 394 kts 270°
2026-05-05 13:52 43.08498 -76.43286 34392 ft 393 kts 270°
2026-05-05 13:52 43.08571 -76.47024 34147 ft 393 kts 270°
2026-05-05 13:52 43.08640 -76.50709 33921 ft 393 kts 269°
2026-05-05 13:53 43.08708 -76.54437 33674 ft 391 kts 269°
2026-05-05 13:53 43.08775 -76.58157 33401 ft 391 kts 269°
2026-05-05 13:53 43.08839 -76.61883 33125 ft 392 kts 269°
2026-05-05 13:53 43.08898 -76.65617 32852 ft 393 kts 269°
2026-05-05 13:54 43.08894 -76.69354 32583 ft 393 kts 265°
2026-05-05 13:54 43.08649 -76.73083 32319 ft 394 kts 263°
2026-05-05 13:54 43.08392 -76.76823 32055 ft 396 kts 263°
2026-05-05 13:54 43.08140 -76.80525 31811 ft 397 kts 263°
2026-05-05 13:55 43.07631 -76.88046 31751 ft 398 kts 263°
2026-05-05 13:55 43.07118 -76.95587 31732 ft 399 kts 263°
2026-05-05 13:56 43.06601 -77.03154 31732 ft 399 kts 263°
2026-05-05 13:56 43.06070 -77.10712 31732 ft 399 kts 263°
2026-05-05 13:57 43.05804 -77.14435 31526 ft 400 kts 263°
2026-05-05 13:57 43.05532 -77.18224 31286 ft 400 kts 263°
2026-05-05 13:57 43.05263 -77.22013 31028 ft 401 kts 263°
2026-05-05 13:57 43.04993 -77.25809 30783 ft 401 kts 262°
2026-05-05 13:58 43.04724 -77.29594 30542 ft 400 kts 262°
2026-05-05 13:58 43.04454 -77.33375 30289 ft 399 kts 262°
2026-05-05 13:58 43.04181 -77.37137 30044 ft 398 kts 262°
2026-05-05 13:58 43.03906 -77.40898 29795 ft 397 kts 262°
2026-05-05 13:59 43.03353 -77.48323 29217 ft 394 kts 262°
2026-05-05 13:59 43.03076 -77.52043 28930 ft 392 kts 262°
2026-05-05 14:00 43.02528 -77.59431 28397 ft 389 kts 262°
2026-05-05 14:00 43.02346 -77.61858 28216 ft 388 kts 262°
2026-05-05 14:00 43.01979 -77.66745 27853 ft 385 kts 262°
2026-05-05 14:00 43.01704 -77.70375 27586 ft 383 kts 262°
2026-05-05 14:01 43.01429 -77.73987 27325 ft 382 kts 262°
2026-05-05 14:01 43.01158 -77.77549 27067 ft 381 kts 262°
2026-05-05 14:01 43.00882 -77.81135 26810 ft 379 kts 262°
2026-05-05 14:01 43.00609 -77.84711 26562 ft 378 kts 262°
2026-05-05 14:02 43.00334 -77.88273 26302 ft 376 kts 262°
2026-05-05 14:02 43.00057 -77.91827 26045 ft 375 kts 262°
2026-05-05 14:02 42.99780 -77.95359 25806 ft 374 kts 262°
2026-05-05 14:02 42.99505 -77.98878 25540 ft 372 kts 262°
2026-05-05 14:03 42.99232 -78.02390 25294 ft 371 kts 262°
2026-05-05 14:03 42.98962 -78.05842 25053 ft 370 kts 262°
2026-05-05 14:03 42.98686 -78.09329 24812 ft 369 kts 262°
2026-05-05 14:03 42.98411 -78.12802 24572 ft 367 kts 262°
2026-05-05 14:04 42.98139 -78.16259 24332 ft 366 kts 262°
2026-05-05 14:04 42.97866 -78.19707 24099 ft 365 kts 262°
2026-05-05 14:04 42.97590 -78.23147 23865 ft 364 kts 262°
2026-05-05 14:04 42.97311 -78.26578 23633 ft 362 kts 262°
2026-05-05 14:05 42.97035 -78.29948 23406 ft 361 kts 262°
2026-05-05 14:05 42.96755 -78.33349 23153 ft 360 kts 262°
2026-05-05 14:05 42.96478 -78.36735 22880 ft 359 kts 262°
2026-05-05 14:05 42.96205 -78.40116 22609 ft 357 kts 262°
2026-05-05 14:06 42.95932 -78.43474 22338 ft 356 kts 262°
2026-05-05 14:06 42.95657 -78.46822 22075 ft 354 kts 262°
2026-05-05 14:06 42.95377 -78.50161 21811 ft 353 kts 262°
2026-05-05 14:06 42.95096 -78.53479 21549 ft 351 kts 262°
2026-05-05 14:07 42.94819 -78.56784 21288 ft 350 kts 262°
2026-05-05 14:07 42.94543 -78.60080 21027 ft 349 kts 262°
2026-05-05 14:07 42.94272 -78.63320 20775 ft 348 kts 262°
2026-05-05 14:07 42.93996 -78.66590 20533 ft 346 kts 262°
2026-05-05 14:08 42.93894 -78.69866 20286 ft 346 kts 271°
2026-05-05 14:08 42.94280 -78.73100 20036 ft 347 kts 282°
2026-05-05 14:08 42.95146 -78.76178 19785 ft 350 kts 292°
2026-05-05 14:08 42.96475 -78.78989 19539 ft 356 kts 303°
2026-05-05 14:09 42.98060 -78.81593 19294 ft 355 kts 304°
2026-05-05 14:09 42.99628 -78.84185 19039 ft 354 kts 304°
2026-05-05 14:09 43.01173 -78.86750 18816 ft 353 kts 304°
2026-05-05 14:09 43.02727 -78.89341 18580 ft 352 kts 303°
2026-05-05 14:10 43.04273 -78.91928 18344 ft 351 kts 303°
2026-05-05 14:10 43.05814 -78.94504 18112 ft 350 kts 303°
2026-05-05 14:10 43.07358 -78.97073 17859 ft 349 kts 304°
2026-05-05 14:10 43.08897 -78.99632 17591 ft 347 kts 304°
2026-05-05 14:11 43.10427 -79.02181 17350 ft 346 kts 303°
2026-05-05 14:11 43.11949 -79.04719 17100 ft 344 kts 303°
2026-05-05 14:11 43.13462 -79.07251 16946 ft 343 kts 303°
2026-05-05 14:11 43.14959 -79.09757 16750 ft 344 kts 303°
2026-05-05 14:12 43.16466 -79.12275 16438 ft 339 kts 303°
2026-05-05 14:12 43.17952 -79.14760 15977 ft 336 kts 303°
2026-05-05 14:12 43.19426 -79.17229 15507 ft 334 kts 303°
2026-05-05 14:12 43.20892 -79.19688 15047 ft 332 kts 303°
2026-05-05 14:13 43.22345 -79.22126 14586 ft 330 kts 303°
2026-05-05 14:13 43.23793 -79.24556 14121 ft 328 kts 303°
2026-05-05 14:13 43.25217 -79.26946 13664 ft 327 kts 303°
2026-05-05 14:13 43.26652 -79.29360 13163 ft 326 kts 303°
2026-05-05 14:14 43.28080 -79.31759 12696 ft 323 kts 303°
2026-05-05 14:14 43.29508 -79.34083 12500 ft 314 kts 308°
2026-05-05 14:14 43.31192 -79.35956 12368 ft 311 kts 321°
2026-05-05 14:14 43.33091 -79.37271 12237 ft 305 kts 327°
2026-05-05 14:15 43.34990 -79.38469 12054 ft 297 kts 327°
2026-05-05 14:15 43.36848 -79.39656 11822 ft 293 kts 326°
2026-05-05 14:15 43.38677 -79.40838 11355 ft 296 kts 326°
2026-05-05 14:15 43.40523 -79.42033 11055 ft 292 kts 326°
2026-05-05 14:16 43.42359 -79.43223 10659 ft 291 kts 326°
2026-05-05 14:16 43.44192 -79.44410 10276 ft 291 kts 326°
2026-05-05 14:16 43.45999 -79.45577 9906 ft 290 kts 326°
2026-05-05 14:16 43.47800 -79.46739 9519 ft 287 kts 326°
2026-05-05 14:17 43.49585 -79.47891 8728 ft 288 kts 326°
2026-05-05 14:17 43.51367 -79.49041 8266 ft 285 kts 326°
2026-05-05 14:17 43.53145 -79.50183 8082 ft 277 kts 326°
2026-05-05 14:17 43.54840 -79.51269 7976 ft 267 kts 326°
2026-05-05 14:18 43.56503 -79.52329 7782 ft 258 kts 326°
2026-05-05 14:18 43.58148 -79.53235 7634 ft 256 kts 340°
2026-05-05 14:18 43.59941 -79.53138 7480 ft 266 kts 12°
2026-05-05 14:18 43.61518 -79.51754 7331 ft 276 kts 42°
2026-05-05 14:19 43.62845 -79.49833 7158 ft 276 kts 44°
2026-05-05 14:19 43.64157 -79.47904 6999 ft 275 kts 44°
2026-05-05 14:19 43.65442 -79.46010 6834 ft 272 kts 44°
2026-05-05 14:19 43.66730 -79.44113 6696 ft 272 kts 44°
2026-05-05 14:20 43.68024 -79.42213 6534 ft 271 kts 44°
2026-05-05 14:20 43.69329 -79.40299 6383 ft 274 kts 44°
2026-05-05 14:20 43.70634 -79.38387 6229 ft 273 kts 44°
2026-05-05 14:20 43.70884 -79.38021 6202 ft 273 kts 44°
2026-05-05 14:21 43.71038 -79.37796 6178 ft 273 kts 44°
2026-05-05 14:21 43.72343 -79.35886 6016 ft 273 kts 45°
2026-05-05 14:22 43.73642 -79.33986 5863 ft 271 kts 44°
2026-05-05 14:22 43.74927 -79.32105 5708 ft 268 kts 44°
2026-05-05 14:22 43.76202 -79.30236 5555 ft 266 kts 44°
2026-05-05 14:22 43.77531 -79.28475 5389 ft 263 kts 32°
2026-05-05 14:23 43.79106 -79.27260 5219 ft 255 kts 12°
2026-05-05 14:23 43.80232 -79.26947 5012 ft 245 kts 354°
2026-05-05 14:23 43.82301 -79.27599 4613 ft 221 kts 321°
2026-05-05 14:23 43.83453 -79.28911 4483 ft 212 kts 301°
2026-05-05 14:24 43.84163 -79.30651 4333 ft 205 kts 282°
2026-05-05 14:24 43.84432 -79.32564 4177 ft 203 kts 274°
2026-05-05 14:24 43.84571 -79.33868 4068 ft 202 kts 274°
2026-05-05 14:24 43.84846 -79.36392 3861 ft 201 kts 274°
2026-05-05 14:25 43.84984 -79.37643 3768 ft 194 kts 274°
2026-05-05 14:25 43.85032 -79.39444 3629 ft 181 kts 259°
2026-05-05 14:25 43.84638 -79.41062 3519 ft 177 kts 241°
2026-05-05 14:25 43.83873 -79.42395 3420 ft 178 kts 230°
2026-05-05 14:26 43.82740 -79.44055 3292 ft 181 kts 230°
2026-05-05 14:26 43.81873 -79.45324 3187 ft 181 kts 230°
2026-05-05 14:26 43.81289 -79.46179 3129 ft 181 kts 230°
2026-05-05 14:26 43.80441 -79.47417 3071 ft 171 kts 229°
2026-05-05 14:27 43.79667 -79.48547 3007 ft 156 kts 230°
2026-05-05 14:27 43.78962 -79.49577 2998 ft 141 kts 230°
2026-05-05 14:27 43.78303 -79.50542 2971 ft 138 kts 230°
2026-05-05 14:27 43.77652 -79.51494 2865 ft 135 kts 231°
2026-05-05 14:28 43.77009 -79.52432 2745 ft 134 kts 230°
2026-05-05 14:28 43.76369 -79.53367 2563 ft 134 kts 230°
2026-05-05 14:28 43.75732 -79.54298 2401 ft 136 kts 230°
2026-05-05 14:28 43.75070 -79.55263 2220 ft 136 kts 231°
2026-05-05 14:29 43.74439 -79.56183 2046 ft 133 kts 229°
2026-05-05 14:29 43.73801 -79.57113 1862 ft 132 kts 231°
2026-05-05 14:29 43.73178 -79.58021 1690 ft 131 kts 231°
2026-05-05 14:29 43.72546 -79.58941 1507 ft 132 kts 231°
2026-05-05 14:30 43.71920 -79.59853 1329 ft 130 kts 231°
2026-05-05 14:30 43.71300 -79.60755 1149 ft 129 kts 232°
2026-05-05 14:30 43.70680 -79.61658 991 ft 132 kts 231°
2026-05-05 14:30 43.70036 -79.62595 818 ft 133 kts 231°
2026-05-05 14:31 43.69407 -79.63511 632 ft 131 kts 232°
2026-05-05 14:31 43.68846 -79.64327 563 ft 84 kts 226°
2026-05-05 14:31 43.68580 -79.64713 565 ft 42 kts 226°
2026-05-05 14:31 43.68425 -79.64944 566 ft 24 kts 228°
2026-05-05 14:32 43.68288 -79.65066 565 ft 24 kts 204°
2026-05-05 14:32 43.68141 -79.65112 568 ft 18 kts 172°
2026-05-05 14:32 43.68110 -79.64994 570 ft 17 kts 59°
2026-05-05 14:32 43.68210 -79.64851 574 ft 21 kts 44°
2026-05-05 14:33 43.68306 -79.64719 569 ft 19 kts 45°
2026-05-05 14:33 43.68401 -79.64579 567 ft 21 kts 48°
2026-05-05 14:33 43.68495 -79.64436 568 ft 20 kts 47°
2026-05-05 14:33 43.68587 -79.64299 567 ft 19 kts 46°
2026-05-05 14:34 43.68665 -79.64169 571 ft 18 kts 68°
2026-05-05 14:34 43.68666 -79.63979 566 ft 20 kts 94°
2026-05-05 14:34 43.68650 -79.63817 570 ft 15 kts 120°
2026-05-05 14:34 43.68568 -79.63708 570 ft 22 kts 137°
2026-05-05 14:35 43.68453 -79.63561 566 ft 22 kts 138°
2026-05-05 14:35 43.68345 -79.63428 566 ft 20 kts 137°
2026-05-05 14:35 43.68254 -79.63298 567 ft 18 kts 135°
2026-05-05 14:35 43.68168 -79.63187 572 ft 16 kts 138°
2026-05-05 14:36 43.68090 -79.63085 569 ft 15 kts 136°
2026-05-05 14:36 43.68019 -79.62992 567 ft 14 kts 136°
2026-05-05 14:36 43.67962 -79.62898 575 ft 15 kts 103°
2026-05-05 14:36 43.68026 -79.62766 569 ft 19 kts 46°
2026-05-05 14:37 43.68115 -79.62638 568 ft 18 kts 46°
2026-05-05 14:37 43.68203 -79.62511 563 ft 19 kts 47°
2026-05-05 14:37 43.68178 -79.62366 564 ft 22 kts 136°
2026-05-05 14:37 43.68068 -79.62224 566 ft 21 kts 137°
2026-05-05 14:38 43.67973 -79.62096 563 ft 17 kts 123°
2026-05-05 14:38 43.67992 -79.61952 565 ft 15 kts 72°
2026-05-05 14:38 43.68037 -79.61857 564 ft 9 kts 47°
2026-05-05 14:38 43.68079 -79.61797 565 ft 8 kts 46°
2026-05-05 14:39 43.68105 -79.61740 563 ft 6 kts 98°
2026-05-05 14:39 43.68082 -79.61702 564 ft 6 kts 135°
2026-05-05 14:39 43.68056 -79.61668 561 ft 3 kts 136°
2026-05-05 14:39 43.68052 -79.61663 561 ft 0 kts 136°